Home > Weather > Tegucigalpa > Past weeks

Flag for Honduras Past Weather in Tegucigalpa, Honduras — Yesterday and Last 2 Weeks

Now
66 °F

Passing clouds.


Feels Like: 66 °F
Forecast: 70 / 88 °F
Wind: No wind

Location: Tegucigalpa Airport

Current Time: May 28, 2016 at 6:04:26 AM

Latest Report: May 28, 2016 at 5:00 AM


Visibility: N/A

Pressure: 30.01 "Hg (26.53 "Hg at 1054m altitude)

Humidity: 100%

Dew Point: 66 °F

Location of TegucigalpaLocation

Past Weather in Tegucigalpa — Graph

°F

Tegucigalpa Temperature Yesterday

Maximum temperature yesterday: 88 °F (at 2:00 PM)
Minimum temperature yesterday: 68 °F (at 3:00 AM)
Average temperature yesterday: 75 °F

High & Low Weather Summary for the Past Weeks

 TemperatureHumidityPressure
High93 °F (May 25, 2:00 PM)100% (May 14, 11:00 PM)30.15 "Hg (May 14, 11:00 PM)
Low63 °F (May 22, 5:00 AM)28% (May 22, 1:00 PM)29.89 "Hg (May 24, 9:00 PM)
Average77 °F70%30.07 "Hg
* Reported May 13 4:00 AM — May 28 4:00 AM, Tegucigalpa, Weather by CustomWeather, © 2016

Note: Actual official high and low records may vary slightly from our data, if they occured in-between our weather recording intervals... More about our weather records

Advertising

Tegucigalpa Weather History for the Previous 24 Hours

Scroll right to see more
 ConditionsComfort  
Time TempWeatherWind HumidityBarometerVisibility
4:00 AM
Sat, May 28
68 °FPartly cloudy.No wind100%30.01 "HgN/A
3:00 AM68 °FPassing clouds.No wind100%30.01 "HgN/A
2:00 AM66 °FPassing clouds.No wind100%30.01 "HgN/A
1:00 AM68 °FPassing clouds.No wind100%30.04 "HgN/A
12:00 AM68 °FClear.No wind100%30.04 "HgN/A
11:00 PM
Fri, May 27
68 °FClear.No wind100%30.04 "HgN/A
10:00 PM70 °FClear.2 mph94%30.04 "Hg10 mi
9:00 PM72 °FClear.7 mph88%30.01 "Hg10 mi
8:00 PM73 °FPassing clouds.7 mph83%30.01 "HgN/A
7:00 PM75 °FPassing clouds.5 mph78%29.98 "HgN/A
6:00 PM77 °FPartly sunny.7 mph69%29.95 "HgN/A
5:00 PM81 °FPartly sunny.6 mph62%29.95 "HgN/A
4:00 PM82 °FScattered clouds.7 mph58%29.95 "HgN/A
3:00 PM84 °FScattered clouds.5 mph45%29.95 "HgN/A
2:00 PM88 °FScattered clouds.5 mph49%29.98 "HgN/A
1:00 PM82 °FBroken clouds.7 mph58%30.01 "HgN/A
12:00 PM82 °FBroken clouds.6 mph58%30.04 "HgN/A
11:00 AM81 °FBroken clouds.5 mph70%30.04 "HgN/A
10:00 AM79 °FBroken clouds.5 mph74%30.07 "HgN/A
9:00 AM75 °FBroken clouds.5 mph89%30.07 "Hg5 mi
8:00 AM70 °FFog.5 mph100%30.07 "Hg5 mi
7:00 AM68 °FBroken clouds.No wind100%30.04 "Hg4 mi
6:00 AM68 °FRain. Mostly cloudy.3 mph100%30.04 "Hg1 mi
Weather by CustomWeather, © 2016

See weather overviewHow to use our weather pages